Location: Alladorf
(49.9620°N, 11.3790°E)
Time: 20:33:57
(UTC+00:00)

Cosmos 1408 Rocket - Pass Details

Date: 29 November 2020
Orbit: 601 x 631 km, 82.6° (Epoch: 25 January)

Event Time Altitude Azimuth Distance (km) Brightness Sun altitude
Rises 04:56:41 0° 205° (SSW) 2,912 6.9 -17.3°
Reaches altitude 10° 04:59:00 10° 211° (SSW) 2,009 6.0 -16.9°
Maximum altitude 05:03:17 46° 285° (WNW) 853 3.8 -16.3°
Drops below altitude 10° 05:07:36 10° 359° (N) 2,015 6.0 -15.6°
Sets 05:09:55 0° 6° (N) 2,923 6.9 -15.2°
